Location: Festenburg
(51.8500°N, 10.4000°E)
Time: 12:07:17
(UTC+00:00)

Daily predictions for brighter satellites

Satellite Brightness Start Highest point End
(mag) Time Altitude Azimuth Time Altitude Azimuth Time Altitude Azimuth
NOAA 11 4.2 15:37:10 10° SSE 15:42:34 74° ENE 15:48:01 10° NNW
Cosmos 1833 Rocket 3.7 15:41:38 10° SSE 15:46:16 27° ESE 15:50:57 10° NE
ARGOS 4.5 15:42:49 10° E 15:46:20 18° NE 15:49:51 10° NNE
SL-08 R/B 3.5 15:45:29 10° NNE 15:50:07 51° E 15:54:38 10° S
ATLAS CENTAUR R/B 4.2 15:40:40 10° SSW 15:50:13 35° SE 15:54:39 10° ENE
Meteor 1-31 Rocket 3.5 15:46:40 10° S 15:50:24 58° WSW 15:54:12 10° NNW
Cosmos 2219 Rocket 4.2 15:49:21 10° N 15:51:00 11° N 15:52:40 10° NNE
Cosmos 1818 4.5 15:46:44 10° NW 15:51:35 30° NNE 15:56:24 10° E
ADEOS 3.8 15:47:55 10° SSE 15:53:09 78° WSW 15:58:25 10° NNW
Cosmos 1782 4.5 15:52:36 10° ESE 15:54:59 15° E 15:57:23 10° NE
Cosmos 1898 Rocket 3.5 15:51:09 10° NNW 15:56:24 61° ENE 16:01:34 10° SE
YAOGAN 6 4.4 15:53:06 10° SSW 15:56:30 36° W 15:59:57 10° NNW
ATLAS CENTAUR R/B 2.5 15:52:42 10° WSW 15:56:43 38° NW 16:01:02 10° NE
SJ-7 4.5 15:52:43 10° SSE 15:56:56 81° ENE 16:01:12 10° NNW
H-2A R/B 4.3 15:53:47 10° SSW 15:57:13 38° W 16:00:40 10° NNW
COSMOS 2455 4.2 15:56:12 10° SSE 16:00:35 21° ESE 16:04:59 10° ENE
Cosmos 2026 Rocket 4.3 15:55:38 10° N 16:01:26 40° ENE 16:07:07 10° SE
Cosmos 1606 2.6 15:58:03 10° S 16:01:49 86° ESE 16:05:39 10° NNE
Cosmos 1408 Rocket 3.6 15:57:38 10° N 16:02:01 88° W 16:06:25 10° S
GEOS 3 Rocket 4.5 15:58:02 10° E 16:02:32 30° NNE 16:07:01 10° NW
Cosmos 1340 Rocket 2.8 15:58:28 10° N 16:02:33 71° ENE 16:06:37 10° SSE
CZ-2C R/B 4.1 16:00:10 10° NE 16:02:59 15° E 16:05:47 10° ESE
USA 308 3.0 15:58:47 10° W 16:03:03 70° N 16:07:12 11° ENE
CZ-4C R/B 3.2 16:00:48 10° NNE 16:04:44 89° WNW 16:08:27 10° SSW
ERBS 2.5 16:02:23 10° WSW 16:05:32 58° NNW 16:08:26 12° ENE
MOS 1 Rocket 3.9 16:00:31 10° N 16:05:33 62° WNW 16:10:16 10° SSW
CZ-2D R/B 4.2 16:03:48 10° ESE 16:07:01 26° ENE 16:10:15 10° N
CZ-2C R/B 2.9 16:02:14 10° SSE 16:07:08 85° ENE 16:11:54 10° NNW
Cosmos 2360 4.2 16:01:35 10° NNW 16:07:21 70° NE 16:13:04 10° SE
CZ-4B R/B 3.9 16:03:18 10° ESE 16:07:51 29° ENE 16:12:21 10° N
deb Kosmos-1763 4.4 16:04:40 10° SW 16:08:03 59° WNW 16:11:27 10° NNE
NOSS 2-1 (E) 3.7 16:06:17 10° WSW 16:09:24 42° NW 16:12:50 10° NE
Cosmos 1500 4.1 16:06:37 10° N 16:09:52 27° ENE 16:13:04 10° SE
Meteor 1-20 Rocket 4.3 16:04:41 10° N 16:10:30 66° ENE 16:16:20 10° SSE
Cosmos 1743 Rocket 3.5 16:06:11 10° N 16:10:30 64° ENE 16:14:48 10° SSE
NOSS 2-2 (C) 4.1 16:06:29 10° NW 16:11:12 65° NE 16:17:45 10° ESE
Lacrosse 5 rocket 1.7 16:07:44 10° WNW 16:11:24 43° NNE 16:14:59 12° E
Okean O Rocket 2.8 16:12:46 10° ESE 16:16:10 22° ENE 16:19:36 10° N
USA 267 3.5 16:13:43 11° ENE 16:19:54 58° SE 16:26:20 10° SW
Cosmos 1666 Rocket 4.4 16:17:50 10° N 16:21:42 28° ENE 16:25:30 10° SE
CZ-4 R/B 3.5 16:23:40 11° NE 16:23:40 11° NE 16:23:54 10° NNE
Cosmos 2360 Rocket 3.7 16:19:20 10° NNW 16:23:02 17° NNE 16:25:23 14° NE
SJ 16-02 4.2 16:20:46 10° NW 16:24:04 21° W 16:27:20 10° SSW
Cosmos 1809 Rocket 4.4 16:18:22 10° N 16:24:26 62° ENE 16:30:27 10° SSE
H-2A R/B 2.3 16:20:08 10° SE 16:24:59 43° ENE 16:29:43 10° N
Cosmos 1763 Rocket 3.5 16:23:40 10° S 16:28:40 64° ESE 16:33:45 10° NNE
CZ-4B R/B 3.4 16:25:22 10° S 16:29:20 61° WSW 16:33:09 10° NNW
USA 305 3.0 16:25:29 10° W 16:29:42 65° N 16:32:46 18° ENE
Cosmos 1933 3.4 16:30:43 10° S 16:34:40 54° E 16:38:37 10° NNE
Cosmos 841 Rocket 4.1 16:30:33 10° SSE 16:35:12 35° ESE 16:38:47 16° NE
USA 229 DEB 4.4 16:28:02 10° NW 16:35:12 65° SW 16:42:53 10° SSE
USA 229 4.4 16:28:07 10° NW 16:35:19 65° SW 16:42:57 10° SSE
PSLV R/B 3.7 16:31:51 10° SSE 16:35:27 55° ENE 16:39:09 10° N
Cosmos 1937 Rocket 3.5 16:31:04 10° NNW 16:36:26 89° ENE 16:41:45 10° SSE
Cosmos 1464 Rocket 4.5 16:30:32 10° SSW 16:36:53 67° WNW 16:43:15 10° N
MOS 1-B 4.4 16:32:31 10° SE 16:38:11 60° ENE 16:43:54 10° N
Spot 1 4.5 16:34:03 10° NNE 16:38:42 77° WNW 16:43:37 10° SSW
Cosmos 1500 Rocket 4.0 16:34:34 10° NNW 16:39:01 66° W 16:43:22 10° S
Cosmos 1125 Rocket 4.4 16:34:40 10° N 16:39:04 26° NE 16:41:53 17° E
Cosmos 1666 3.3 16:36:02 10° N 16:39:23 31° ENE 16:42:43 10° SE
SeaSat 1 4.1 16:36:45 10° NNE 16:40:54 27° NW 16:45:02 10° W
SL-24 R/B - RUBIN 2 3.5 16:37:38 10° NW 16:42:18 88° NE 16:46:39 10° SE
Cosmos 2322 Rocket 3.2 16:38:47 10° NNW 16:43:34 26° NE 16:45:58 20° ENE
ATLAS 2AS CENTAUR R/B 3.9 16:37:54 10° WNW 16:44:52 35° N 16:50:00 16° NE
Cosmos 1697 Rocket 3.2 16:40:12 10° NW 16:45:46 63° WSW 16:51:18 10° SSE
Cosmos 372 Rocket 3.9 16:42:24 10° NNW 16:47:40 75° ENE 16:52:54 10° SSE
Sich 1 2.9 16:44:29 10° N 16:48:48 79° E 16:53:06 10° SSE
Cosmos 1980 Rocket 2.1 16:44:27 10° NNW 16:50:10 82° ENE 16:55:50 10° SSE
NOAA 6 4.3 16:45:16 10° S 16:50:24 71° WSW 16:55:33 10° NNW
Cosmos 1805 Rocket 3.6 16:46:26 10° NNW 16:50:47 81° W 16:55:07 10° S
Meteor 1-14 Rocket 4.3 16:45:35 10° N 16:51:20 57° ENE 16:57:09 10° SSE
Cosmos 2369 3.8 16:46:18 10° NNW 16:52:04 81° WSW 16:57:48 10° SSE
Cosmos 2221 3.9 16:49:05 10° SW 16:53:05 38° WNW 16:57:09 10° N
USA 234 3.9 16:49:08 10° SE 16:55:33 58° SW 17:02:00 10° WNW
Meteor 1-5 Rocket 4.4 16:50:21 10° N 16:56:16 57° ENE 17:02:07 10° SSE
Cosmos 1092 Rocket 4.2 16:50:18 10° NNW 16:56:40 78° W 17:03:00 10° S
CZ-4C R/B 2.9 16:49:52 10° NW 16:56:48 81° NE 17:05:06 10° SE
SL-08 RB Rocket 4.2 16:54:23 10° SE 16:58:35 35° ENE 17:02:47 10° N
SL-16 R/B 2.7 16:56:16 10° NNW 17:01:35 38° NE 17:04:16 24° E
Cosmos 1812 3.1 16:58:03 10° SSE 17:01:40 41° E 17:02:43 33° NE
USA 306 2.9 16:57:37 10° W 17:01:52 65° N 17:03:35 33° ENE
ISS -2.7 16:59:38 10° W 17:02:53 42° SSW 17:04:59 19° SE
MOS 1-B Rocket 4.1 16:57:48 10° NNE 17:03:33 56° ESE 17:10:00 10° S
Cosmos 2237 Rocket 4.3 17:02:09 10° N 17:03:49 11° N 17:05:11 10° NNE
deb Chang Zheng 4 3.5 17:01:30 10° SSE 17:05:45 63° ENE 17:10:01 10° N
SMAP 4.1 17:01:58 10° S 17:06:28 49° W 17:11:00 10° NNW
Cosmos 2082 Rocket 2.4 17:02:15 10° S 17:07:43 52° ESE 17:10:43 26° NE
Cosmos 1939 Rocket 4.4 17:03:53 10° SSW 17:07:45 39° W 17:11:36 10° NNW
Cosmos 44 Rocket 3.2 17:06:52 10° NW 17:11:50 63° NE 17:14:23 27° ESE
Cosmos 2333 Rocket 3.6 17:07:58 10° NNW 17:12:11 20° NNE 17:12:25 20° NE
Meteor 2-16 Rocket 4.3 17:07:11 10° N 17:13:19 76° ENE 17:19:27 10° SSE
Cosmos 2278 3.7 17:10:24 10° NNW 17:16:10 89° SW 17:21:52 10° SSE
Cosmos 2142 Rocket 4.4 17:13:44 10° S 17:19:50 68° E 17:26:02 10° NNE
YAOGAN 3 4.4 17:16:17 10° SSE 17:20:37 73° ENE 17:24:59 10° N
USA 307 2.9 17:16:23 10° WNW 17:20:39 67° N 17:21:38 49° ENE
H-2A R/B 4.4 17:25:03 16° N 17:25:03 16° N 17:25:58 10° N
SL-16 R/B 4.4 17:21:08 10° NNW 17:22:34 11° N 17:24:01 10° NNE
Cosmos 540 Rocket 3.5 17:17:33 10° SSW 17:22:39 81° WNW 17:26:07 21° NNE
COSMO-SKYMED 1 2.5 17:23:24 40° NE 17:24:44 59° ESE 17:29:01 10° S
ARGOS 3.0 17:20:26 10° SSE 17:25:51 82° ENE 17:31:17 10° NNW
Cosmos 2298 Rocket 4.0 17:20:49 10° NNW 17:26:06 57° ENE 17:28:51 27° SE
Cosmos 1570 Rocket 4.1 17:22:17 10° S 17:27:21 51° ESE 17:28:36 42° ENE
Cosmos 2279 Rocket 3.9 17:21:14 10° S 17:27:25 73° E 17:33:37 10° NNE
COSMOS 2406 3.3 17:22:42 10° SW 17:28:27 78° WNW 17:32:09 23° NNE
Cosmos 2266 Rocket 4.1 17:22:24 10° N 17:28:40 56° ENE 17:34:58 10° SSE
Cosmos 1833 Rocket 3.0 17:24:15 10° SW 17:29:49 63° NW 17:33:42 20° NNE
Cosmos 1782 3.3 17:26:53 10° SSW 17:30:49 59° WNW 17:33:48 17° N
Cosmos 1814 Rocket 3.9 17:27:01 10° S 17:32:10 63° ESE 17:33:44 42° NE
ATLAS 5 CENTAUR R/B 1.9 17:24:26 10° NW 17:32:28 82° NE 17:33:08 58° ESE
Helios 1B 4.4 17:32:06 49° NE 17:33:09 69° ESE 17:37:27 10° S
Cosmos 1633 Rocket 3.1 17:29:34 10° NNW 17:33:58 80° W 17:38:21 10° S
Cosmos 1818 3.5 17:30:18 10° NW 17:35:50 89° NE 17:38:50 28° SE
ATLAS CENTAUR R/B 3.5 17:33:37 10° NW 17:36:47 18° N 17:37:49 17° N
Cosmos 2219 Rocket 3.7 17:33:00 10° NNW 17:36:28 21° NNE 17:36:28 21° NNE
YAOGAN 1 3.3 17:39:35 39° NNE 17:39:35 39° NNE 17:42:30 10° N
GEOS 3 Rocket 3.5 17:37:58 37° SE 17:40:08 80° NE 17:45:21 10° NW
SL-19 R/B 4.5 17:35:46 15° NNE 17:40:54 78° ESE 17:47:29 10° SSW
ERBS 3.9 17:38:57 10° WNW 17:41:01 26° NNW 17:41:01 26° NNW
Meteor 2-6 Rocket 4.1 17:36:37 10° S 17:42:19 69° E 17:45:14 29° NNE
USA 308 2.8 17:38:56 10° WNW 17:43:11 73° NNE 17:43:13 73° NNE
CZ-2C R/B 2.4 17:40:35 21° NNE 17:44:07 85° ESE 17:49:18 10° SSW
Cosmos 1634 Rocket 4.5 17:38:16 10° SSW 17:44:31 61° WNW 17:50:50 10° N
COSMOS 2455 2.8 17:39:45 10° SW 17:45:47 88° NW 17:48:14 39° NE
CZ-4B R/B 3.8 17:42:49 10° S 17:48:08 57° WSW 17:53:25 10° NNW
Cosmos 1151 Rocket 3.2 17:45:31 10° SSW 17:49:49 71° WNW 17:51:27 37° N
Lacrosse 5 rocket 1.4 17:46:48 10° WNW 17:50:36 71° SW 17:50:36 71° SW
Spot 2 4.3 17:46:44 17° SSE 17:50:45 76° ENE 17:55:53 10° NNW
Okean O Rocket 2.2 17:47:47 10° S 17:52:11 58° WSW 17:56:36 10° NNW
IRS-1C Rocket 4.4 17:54:34 49° NNE 17:54:34 49° NNE 17:58:50 10° N
CZ-4 R/B 3.5 17:59:40 17° NNW 17:59:40 17° NNW 18:00:38 10° NNW
Cosmos 2237 4.3 17:52:09 10° NNW 17:57:31 56° NE 17:57:31 56° NE
Meteor 2-15 4.3 17:53:39 10° S 17:59:45 78° E 18:03:28 25° NNE
Cosmos 2208 Rocket 3.9 17:55:58 10° SSW 18:01:22 77° ESE 18:01:39 74° ENE
Meteor 1-11 Rocket 3.6 17:56:19 10° NNW 18:01:58 82° ENE 18:05:45 22° SSE
Cosmos 1470 Rocket 3.8 17:58:35 10° NNW 18:03:02 69° W 18:07:28 10° S
USA 267 3.3 18:01:03 46° NE 18:03:05 72° NNW 18:09:36 10° W
Cosmos 2150 Rocket 3.9 17:58:20 10° NNW 18:03:33 83° WSW 18:04:48 53° SSE
Meteor 1-10 Rocket 4.1 17:58:27 10° S 18:04:12 75° E 18:04:52 66° NE
H-2A R/B 3.7 17:59:56 10° SSW 18:04:32 32° W 18:09:04 10° NNW
Cosmos 1655 Rocket 4.0 17:58:37 10° NNW 18:05:04 84° W 18:11:26 10° S
Landsat 5 4.5 18:08:42 39° SSW 18:08:42 39° SSW 18:11:17 10° SSW
Cosmos 1328 Rocket 3.8 18:02:57 10° SSW 18:07:22 67° WNW 18:07:30 66° WNW
Cosmos 2360 Rocket 2.7 18:02:51 10° NNW 18:07:10 43° NNE 18:07:10 43° NNE
USA 305 3.6 18:05:31 10° WNW 18:08:46 52° WNW 18:08:46 52° WNW
SKYMED 2 4.3 18:12:01 44° NW 18:12:48 50° WNW 18:17:00 10° SW
COSMOS 2428 4.3 18:13:03 10° NNW 18:15:41 22° N 18:15:41 22° N
ATLAS CENTAUR R/B 2.8 18:14:42 10° WSW 18:20:43 53° WNW 18:20:43 53° WNW
Cosmos 1125 Rocket 3.8 18:16:24 10° NNW 18:21:37 66° WSW 18:22:14 60° SSW
Cosmos 2322 Rocket 2.3 18:22:35 10° NNW 18:27:49 75° NW 18:27:49 75° NW
NOSS 3-4 (A) 4.1 18:28:18 10° NW 18:33:59 49° N 18:33:59 49° N
NOSS 3-4 (C) 4.1 18:28:24 10° NW 18:34:04 48° N 18:34:04 48° N
ATLAS 2AS CENTAUR R/B 3.6 18:30:46 10° NW 18:37:27 38° NNE 18:37:27 38° NNE
ISS -0.3 18:37:53 10° WSW 18:37:59 10° WSW 18:37:59 10° WSW
CZ-4C R/B 4.3 18:38:40 10° NW 18:45:10 35° WSW 18:52:32 10° S
SL-16 R/B 2.9 18:40:24 10° NW 18:45:53 51° WSW 18:46:11 50° WSW
Cosmos 2237 Rocket 4.4 18:45:50 10° NNW 18:47:00 14° N 18:47:00 14° N
Cosmos 2082 Rocket 3.3 18:46:45 10° WSW 18:52:01 37° NW 18:52:35 36° NNW
Cosmos 2333 Rocket 3.8 18:51:52 10° NNW 18:54:26 27° NNW 18:54:26 27° NNW
Cosmos 2219 Rocket 4.3 19:16:35 10° NNW 19:18:11 19° NNW 19:18:11 19° NNW
USA 267 4.5 19:48:25 35° WNW 19:48:25 35° WNW 19:52:10 10° WNW
Cosmos 2360 Rocket 4.5 19:47:10 10° NW 19:48:57 19° NW 19:48:57 19° NW
